Location: Hradec Kralove
(50.2170°N, 15.8330°E)
Time: 12:21:27
(UTC+01:00)

A-11 Canister half - Visible Passes

Search period start: 05 March 2024 00:00
Search period end: 15 March 2024 00:00
Orbit: 1526 x 1682 km, 47.3° (Epoch: 04 March)

Date Brightness Start Highest point End Pass type
(mag) Time Alt. Az. Time Alt. Az. Time Alt. Az.
05 Mar 9.5 18:08:24 10° SW 18:17:25 45° SSE 18:26:11 10° E visible
05 Mar 8.9 20:12:09 10° WSW 20:21:42 73° S 20:25:14 43° E visible
05 Mar 9.5 22:17:00 10° W 22:23:32 48° WSW 22:23:32 48° WSW visible
06 Mar 8.9 19:50:24 10° WSW 19:59:58 72° S 20:04:45 33° E visible
06 Mar 9.1 21:55:15 10° W 22:03:02 60° WSW 22:03:02 60° WSW visible
07 Mar 10.8 00:00:17 10° W 00:01:20 14° W 00:01:20 14° W visible
07 Mar 9.0 19:28:40 10° WSW 19:38:15 71° SSE 19:44:14 26° E visible
07 Mar 8.9 21:33:30 10° W 21:42:31 70° SSW 21:42:31 70° SSW visible
07 Mar 10.6 23:38:31 10° W 23:40:49 19° W 23:40:49 19° W visible
08 Mar 9.1 19:06:54 10° WSW 19:16:31 71° SSE 19:23:42 19° E visible
08 Mar 8.8 21:11:44 10° W 21:21:14 72° S 21:21:59 69° SSE visible
08 Mar 10.3 23:16:45 10° W 23:20:16 24° W 23:20:16 24° W visible
09 Mar 9.1 18:45:09 10° WSW 18:54:47 70° SSE 19:03:09 14° E visible
09 Mar 8.9 20:49:58 10° W 20:59:30 72° S 21:01:26 58° SE visible
09 Mar 10.1 22:54:58 10° W 22:59:44 30° W 22:59:44 30° W visible
10 Mar 9.2 18:23:25 10° WSW 18:33:03 69° SSE 18:42:24 10° E visible
10 Mar 8.9 20:28:12 10° W 20:37:46 73° S 20:40:53 47° ESE visible
10 Mar 9.8 22:33:13 10° W 22:39:10 36° WSW 22:39:10 36° WSW visible
11 Mar 9.0 20:06:26 10° W 20:16:03 74° S 20:20:19 37° ESE visible
11 Mar 9.5 22:11:27 10° W 22:18:35 43° WSW 22:18:35 43° WSW visible
12 Mar 9.0 19:44:40 10° W 19:54:18 74° S 19:59:45 29° ESE visible
12 Mar 9.3 21:49:40 10° W 21:58:03 48° SW 21:58:03 48° SW visible
12 Mar 11.0 23:56:00 10° W 23:56:20 11° W 23:56:20 11° W visible
13 Mar 9.0 19:22:54 10° W 19:32:34 75° S 19:39:12 22° ESE visible
13 Mar 9.2 21:27:54 10° W 21:36:57 50° SSW 21:37:30 50° SSW visible
13 Mar 10.8 23:34:04 10° W 23:35:47 14° W 23:35:47 14° W visible
14 Mar 9.1 19:01:08 10° W 19:10:50 75° S 19:18:40 16° ESE visible
14 Mar 9.2 21:06:08 10° W 21:15:15 52° SSW 21:16:57 47° S visible
14 Mar 10.6 23:12:09 10° W 23:15:15 17° WSW 23:15:15 17° WSW visible
